Hourly Weather Bolshie Picherki

Today, 20 June, Sunday

Time Temperature Precipitation Wind Pressure Humidity
00:00 +17°C° 0 mm 3 mps 757 mmHg 90%
01:00 +17°C° 0 mm 3 mps 757 mmHg 91%
02:00 +17°C° 0 mm 3 mps 757 mmHg 92%
03:00 +17°C° 0 mm 3 mps 757 mmHg 93%
04:00 +18°C° 0 mm 3 mps 757 mmHg 89%
05:00 +19°C° 0 mm 3 mps 757 mmHg 85%
06:00 +21°C° 0 mm 3 mps 757 mmHg 81%
07:00 +22°C° 0 mm 3 mps 757 mmHg 76%
08:00 +25°C° 0 mm 3 mps 757 mmHg 71%
09:00 +27°C° 0 mm 4 mps 757 mmHg 65%
10:00 +28°C° 0 mm 4 mps 757 mmHg 61%
11:00 +29°C° 0 mm 4 mps 757 mmHg 58%
12:00 +30°C° 0 mm 4 mps 757 mmHg 54%
13:00 +30°C° 0 mm 4 mps 757 mmHg 53%
14:00 +30°C° 0 mm 4 mps 757 mmHg 52%
15:00 +32°C° 0 mm 4 mps 757 mmHg 51%
16:00 +30°C° 0 mm 4 mps 756 mmHg 57%
17:00 +29°C° 0 mm 3 mps 756 mmHg 63%
18:00 +28°C° 0 mm 2 mps 756 mmHg 70%
19:00 +27°C° 0 mm 2 mps 756 mmHg 75%
20:00 +25°C° 0 mm 2 mps 757 mmHg 80%
21:00 +23°C° 0 mm 1 mps 757 mmHg 85%
22:00 +23°C° 0 mm 1 mps 757 mmHg 85%
23:00 +22°C° 0 mm 1 mps 757 mmHg 86%

Tomorrow, 21 June, Monday

Time Temperature Precipitation Wind Pressure Humidity
00:00 +20°C° 0 mm 0 mps 757 mmHg 86%
01:00 +21°C° 0 mm 1 mps 757 mmHg 87%
02:00 +21°C° 0 mm 1 mps 758 mmHg 88%
03:00 +21°C° 0 mm 1 mps 758 mmHg 89%
04:00 +22°C° 0.1 mm 1 mps 758 mmHg 86%
05:00 +23°C° 0.1 mm 1 mps 758 mmHg 84%
06:00 +23°C° 0.1 mm 1 mps 758 mmHg 81%
07:00 +25°C° 0.1 mm 2 mps 758 mmHg 76%
08:00 +26°C° 0.1 mm 2 mps 758 mmHg 72%
09:00 +27°C° 0.1 mm 2 mps 758 mmHg 67%
10:00 +28°C° 0.5 mm 2 mps 758 mmHg 64%
11:00 +29°C° 0.5 mm 2 mps 758 mmHg 60%
12:00 +30°C° 0.5 mm 2 mps 758 mmHg 56%
13:00 +30°C° 0.2 mm 3 mps 758 mmHg 55%
14:00 +30°C° 0.2 mm 3 mps 758 mmHg 54%
15:00 +31°C° 0.2 mm 3 mps 758 mmHg 53%
16:00 +30°C° 0 mm 2 mps 757 mmHg 57%
17:00 +29°C° 0 mm 2 mps 757 mmHg 62%
18:00 +29°C° 0 mm 1 mps 757 mmHg 66%
19:00 +27°C° 0 mm 1 mps 757 mmHg 69%
20:00 +26°C° 0 mm 1 mps 757 mmHg 73%
21:00 +24°C° 0 mm 1 mps 757 mmHg 76%
22:00 +23°C° 0 mm 1 mps 757 mmHg 77%
23:00 +23°C° 0 mm 1 mps 757 mmHg 79%

Day after tomorrow, 22 June, Tuesday

Time Temperature Precipitation Wind Pressure Humidity
00:00 +22°C° 0 mm 1 mps 757 mmHg 80%
01:00 +22°C° 0 mm 1 mps 757 mmHg 80%
02:00 +22°C° 0 mm 1 mps 757 mmHg 81%
03:00 +21°C° 0 mm 1 mps 757 mmHg 82%
04:00 +23°C° 0 mm 1 mps 757 mmHg 78%
05:00 +24°C° 0 mm 1 mps 758 mmHg 75%
06:00 +25°C° 0 mm 1 mps 758 mmHg 72%
07:00 +26°C° 0 mm 1 mps 758 mmHg 68%
08:00 +28°C° 0 mm 2 mps 758 mmHg 65%
09:00 +29°C° 0 mm 2 mps 758 mmHg 61%
10:00 +30°C° 0 mm 2 mps 758 mmHg 57%
11:00 +31°C° 0 mm 2 mps 758 mmHg 54%
12:00 +32°C° 0 mm 2 mps 758 mmHg 50%
13:00 +32°C° 0 mm 2 mps 758 mmHg 49%
14:00 +32°C° 0 mm 2 mps 757 mmHg 48%
15:00 +32°C° 0 mm 2 mps 757 mmHg 46%
16:00 +31°C° 0 mm 2 mps 757 mmHg 53%
17:00 +31°C° 0 mm 2 mps 757 mmHg 59%
18:00 +30°C° 0 mm 2 mps 756 mmHg 65%
19:00 +28°C° 0 mm 2 mps 757 mmHg 68%
20:00 +26°C° 0 mm 2 mps 757 mmHg 71%
21:00 +25°C° 0 mm 1 mps 757 mmHg 73%
22:00 +24°C° 0 mm 1 mps 757 mmHg 74%
23:00 +24°C° 0 mm 1 mps 757 mmHg 75%

23 June, Wednesday

Time Temperature Precipitation Wind Pressure Humidity
00:00 +23°C° 0 mm 1 mps 757 mmHg 76%
01:00 +23°C° 0 mm 1 mps 757 mmHg 77%
02:00 +22°C° 0 mm 1 mps 757 mmHg 78%
03:00 +22°C° 0 mm 1 mps 757 mmHg 79%
04:00 +23°C° 0 mm 1 mps 757 mmHg 77%
05:00 +24°C° 0 mm 1 mps 757 mmHg 74%
06:00 +26°C° 0 mm 1 mps 757 mmHg 72%
07:00 +27°C° 0 mm 2 mps 757 mmHg 68%
08:00 +28°C° 0 mm 2 mps 757 mmHg 64%
09:00 +30°C° 0 mm 3 mps 757 mmHg 61%
10:00 +31°C° 0 mm 3 mps 757 mmHg 56%
11:00 +33°C° 0 mm 3 mps 757 mmHg 52%
12:00 +33°C° 0 mm 3 mps 757 mmHg 47%
13:00 +34°C° 0 mm 3 mps 757 mmHg 45%
14:00 +34°C° 0 mm 3 mps 756 mmHg 43%
15:00 +34°C° 0 mm 3 mps 756 mmHg 41%
16:00 +32°C° 0 mm 2 mps 756 mmHg 48%
17:00 +31°C° 0 mm 2 mps 756 mmHg 55%
18:00 +30°C° 0 mm 2 mps 756 mmHg 62%
19:00 +29°C° 0 mm 2 mps 756 mmHg 66%
20:00 +27°C° 0 mm 1 mps 756 mmHg 70%
21:00 +25°C° 0 mm 1 mps 756 mmHg 74%
22:00 +25°C° 0 mm 1 mps 756 mmHg 75%
23:00 +24°C° 0 mm 1 mps 756 mmHg 76%

24 June, Thursday

Time Temperature Precipitation Wind Pressure Humidity
00:00 +24°C° 0 mm 1 mps 756 mmHg 77%
01:00 +23°C° 0 mm 1 mps 756 mmHg 78%
02:00 +23°C° 0 mm 1 mps 756 mmHg 78%
03:00 +22°C° 0 mm 1 mps 756 mmHg 79%
04:00 +23°C° 0 mm 1 mps 756 mmHg 75%
05:00 +25°C° 0 mm 1 mps 755 mmHg 72%
06:00 +26°C° 0 mm 1 mps 755 mmHg 68%
07:00 +27°C° 0 mm 2 mps 755 mmHg 65%
08:00 +28°C° 0 mm 2 mps 755 mmHg 62%
09:00 +30°C° 0 mm 3 mps 755 mmHg 59%
10:00 +30°C° 0.2 mm 3 mps 755 mmHg 56%
11:00 +31°C° 0.2 mm 3 mps 755 mmHg 53%
12:00 +33°C° 0.2 mm 3 mps 755 mmHg 51%
13:00 +33°C° 0 mm 3 mps 755 mmHg 51%
14:00 +33°C° 0 mm 3 mps 754 mmHg 52%
15:00 +32°C° 0 mm 2 mps 754 mmHg 53%
16:00 +31°C° 0 mm 2 mps 754 mmHg 56%
17:00 +31°C° 0 mm 2 mps 753 mmHg 60%
18:00 +31°C° 0 mm 2 mps 753 mmHg 64%
19:00 +29°C° 0 mm 2 mps 753 mmHg 68%
20:00 +28°C° 0 mm 1 mps 753 mmHg 71%
21:00 +26°C° 0 mm 1 mps 753 mmHg 74%
22:00 +25°C° 0.1 mm 1 mps 753 mmHg 77%
23:00 +25°C° 0.1 mm 2 mps 753 mmHg 80%

25 June, Friday

Time Temperature Precipitation Wind Pressure Humidity
00:00 +24°C° 0.1 mm 2 mps 753 mmHg 82%
01:00 +24°C° 0 mm 2 mps 753 mmHg 84%
02:00 +24°C° 0 mm 2 mps 752 mmHg 86%
03:00 +23°C° 0 mm 2 mps 752 mmHg 88%
04:00 +24°C° 0 mm 3 mps 752 mmHg 85%
05:00 +25°C° 0 mm 3 mps 752 mmHg 82%
06:00 +26°C° 0 mm 3 mps 752 mmHg 79%
07:00 +28°C° 0 mm 4 mps 752 mmHg 73%
08:00 +29°C° 0 mm 4 mps 752 mmHg 67%
09:00 +30°C° 0 mm 4 mps 752 mmHg 62%
10:00 +32°C° 0 mm 4 mps 751 mmHg 58%
11:00 +33°C° 0 mm 5 mps 751 mmHg 54%
12:00 +34°C° 0 mm 5 mps 751 mmHg 50%
13:00 +34°C° 0 mm 5 mps 751 mmHg 49%
14:00 +34°C° 0 mm 5 mps 751 mmHg 48%
15:00 +34°C° 0 mm 5 mps 751 mmHg 48%
16:00 +34°C° 0 mm 4 mps 751 mmHg 53%
17:00 +33°C° 0 mm 4 mps 750 mmHg 58%
18:00 +31°C° 0 mm 3 mps 750 mmHg 63%
19:00 +29°C° 0.2 mm 3 mps 750 mmHg 70%
20:00 +27°C° 0.2 mm 3 mps 751 mmHg 76%
21:00 +25°C° 0.2 mm 2 mps 751 mmHg 82%
22:00 +24°C° 0 mm 2 mps 751 mmHg 82%
23:00 +23°C° 0 mm 2 mps 750 mmHg 82%
Show more